Weather History for Alva, OK

Change the Weather History Date:

Tuesday, February 11, 2014

  Actual Average Record
Temperature  
Mean Temperature 11 °F -  
Max Temperature 17 °F 50 °F 87 °F (1962)
Min Temperature 5 °F 27 °F -5 °F (1981)
Degree Days  
Heating Degree Days 54    
Moisture  
Dew Point 9 °F    
Average Humidity 82    
Maximum Humidity 93    
Minimum Humidity 68    
Precipitation  
Precipitation 0.18 in - - ()
Sea Level Pressure  
Sea Level Pressure 30.32 in    
Wind  
Wind Speed 6 mph (East)    
Max Wind Speed 12 mph    
Max Gust Speed -    
Visibility 8 miles    
Events Fog , Rain , Snow    
Averages and records for this station are not official NWS values.
T = Trace of Precipitation, MM = Missing Value Source: NWS Daily Summary

Daily Weather History Graph

Daily Weather History Graph

Search for Another Location

Airport:

Trip Planner

Search our weather history database for the weather conditions in past years. The results will help you decide how hot, cold, wet, or windy it might be!

Date:

Astronomy

Feb. 11, 2014 Rise Set
Actual Time 7:27 AM CST 6:11 PM CST
Civil Twilight 7:00 AM CST 6:37 PM CST
Nautical Twilight 6:30 AM CST 7:08 PM CST
Astronomical Twilight 6:00 AM CST 7:38 PM CST
Moon 3:34 PM CST (2/11) 5:03 AM CST (2/11)
Length of Visible Light 11h 37m
Length of Day
10h 43m
Waxing Gibbous, 91% of the Moon is Illuminated
Feb 11
Waxing Gibbous
Feb 14
Full
Feb 22
Last Quarter
Mar 1
New
Mar 8
First Quarter

Hourly Weather History & Observations

Time (CST) Temp. Windchill Dew Point Humidity Pressure Visibility Wind Dir Wind Speed Gust Speed Precip Events Conditions
12:05 AM 14.0 °F 2.9 °F 12.2 °F 93% 30.40 in 1.5 mi NNE 8.1 mph - 0.02 in Snow Light Snow
12:25 AM 14.0 °F 2.0 °F 12.2 °F 93% 30.40 in 2.5 mi NNE 9.2 mph - 0.10 in Snow Light Snow
12:45 AM 14.0 °F 2.9 °F 10.4 °F 86% 30.40 in 3.0 mi NNE 8.1 mph - 0.14 in Snow Light Snow
1:05 AM 14.0 °F 2.9 °F 10.4 °F 86% 30.39 in 4.0 mi NNE 8.1 mph - N/A Snow Light Snow
1:25 AM 14.0 °F 2.9 °F 10.4 °F 86% 30.40 in 5.0 mi NNE 8.1 mph - 0.02 in Snow Light Snow
1:45 AM 14.0 °F 3.9 °F 12.2 °F 93% 30.40 in 5.0 mi North 6.9 mph - 0.03 in Snow Light Snow
2:05 AM 14.0 °F 3.9 °F 12.2 °F 93% 30.40 in 2.5 mi North 6.9 mph - 0.01 in Snow Light Snow
2:25 AM 14.0 °F 3.9 °F 12.2 °F 93% 30.40 in 3.0 mi North 6.9 mph - 0.11 in Snow Light Snow
2:45 AM 14.0 °F 2.9 °F 12.2 °F 93% 30.40 in 5.0 mi North 8.1 mph - 0.14 in Snow Light Snow
3:05 AM 14.0 °F 3.9 °F 10.4 °F 86% 30.40 in 5.0 mi North 6.9 mph - N/A Snow Light Snow
3:25 AM 14.0 °F 2.0 °F 10.4 °F 86% 30.39 in 7.0 mi NNE 9.2 mph - N/A Snow Light Snow
3:45 AM 14.0 °F 3.9 °F 10.4 °F 86% 30.40 in 5.0 mi North 6.9 mph - 0.01 in Snow Light Snow
4:05 AM 14.0 °F 3.9 °F 10.4 °F 86% 30.39 in 7.0 mi North 6.9 mph - N/A Snow Light Snow
4:25 AM 14.0 °F 3.9 °F 10.4 °F 86% 30.39 in 8.0 mi NNE 6.9 mph - N/A Snow Light Snow
4:45 AM 14.0 °F 3.9 °F 10.4 °F 86% 30.40 in 8.0 mi NNE 6.9 mph - N/A Snow Light Snow
5:10 AM 14.0 °F 2.0 °F 10.4 °F 86% 30.40 in 9.0 mi North 9.2 mph - N/A Rain Light Freezing Rain
5:25 AM 14.0 °F 5.1 °F 10.4 °F 86% 30.40 in 10.0 mi NNE 5.8 mph - N/A   Clear
5:45 AM 14.0 °F 5.1 °F 10.4 °F 86% 30.40 in 9.0 mi North 5.8 mph - N/A   Clear
6:05 AM 14.0 °F 5.1 °F 10.4 °F 86% 30.40 in 10.0 mi North 5.8 mph - N/A   Clear
6:25 AM 10.4 °F 0.8 °F 8.6 °F 92% 30.39 in 10.0 mi NNE 5.8 mph - N/A   Clear
6:45 AM 10.4 °F 0.8 °F 6.8 °F 85% 30.39 in 10.0 mi NNE 5.8 mph - N/A   Clear
7:05 AM 10.4 °F 4.0 °F 8.6 °F 92% 30.40 in 8.0 mi NNE 3.5 mph - N/A   Clear
7:25 AM 10.4 °F - 6.8 °F 85% 30.40 in 5.0 mi Calm Calm - N/A   Clear
7:45 AM 8.6 °F - 5.0 °F 85% 30.40 in 0.8 mi Calm Calm - N/A   Mist
8:05 AM 8.6 °F - 6.8 °F 92% 30.40 in 0.5 mi Calm Calm - N/A Fog Light Freezing Fog
8:25 AM 6.8 °F - 5.0 °F 92% 30.41 in 0.2 mi Calm Calm - N/A Fog Light Freezing Fog
8:45 AM 5.0 °F -2.1 °F 1.4 °F 85% 30.40 in 0.2 mi WNW 3.5 mph - N/A Fog Light Freezing Fog
9:05 AM 5.0 °F - 1.4 °F 85% 30.40 in 0.5 mi Calm Calm - N/A Fog Light Freezing Fog
9:25 AM 12.2 °F - 8.6 °F 85% 30.40 in 4.0 mi Calm Calm - N/A   Clear
9:45 AM 10.4 °F 2.2 °F 8.6 °F 92% 30.40 in 7.0 mi NE 4.6 mph - N/A   Clear
10:05 AM 12.2 °F 4.3 °F 8.6 °F 85% 30.40 in 10.0 mi ENE 4.6 mph - N/A   Clear
10:25 AM 14.0 °F 6.5 °F 8.6 °F 79% 30.41 in 9.0 mi ENE 4.6 mph - N/A   Clear
10:45 AM 14.0 °F 6.5 °F 8.6 °F 79% 30.40 in 9.0 mi ENE 4.6 mph - N/A   Clear
11:05 AM 14.0 °F 6.5 °F 6.8 °F 73% 30.40 in 10.0 mi ENE 4.6 mph - N/A   Clear
11:25 AM 15.8 °F - 6.8 °F 68% 30.39 in 10.0 mi Calm Calm - N/A   Clear
11:45 AM 15.8 °F - 6.8 °F 68% 30.39 in 10.0 mi Calm Calm - N/A   Clear
12:05 PM 15.8 °F - 6.8 °F 68% 30.38 in 10.0 mi Calm Calm - N/A   Clear
12:25 PM 15.8 °F - 6.8 °F 68% 30.36 in 10.0 mi Calm Calm - N/A   Clear
12:45 PM 15.8 °F - 8.6 °F 73% 30.35 in 10.0 mi Calm Calm - N/A   Clear
1:05 PM 15.8 °F - 8.6 °F 73% 30.34 in 10.0 mi Calm Calm - N/A   Clear
1:25 PM 15.8 °F - 8.6 °F 73% 30.32 in 10.0 mi Calm Calm - N/A   Clear
1:45 PM 15.8 °F - 8.6 °F 73% 30.31 in 10.0 mi Calm Calm - N/A   Clear
2:05 PM 17.6 °F - 8.6 °F 68% 30.30 in 10.0 mi Calm Calm - N/A   Clear
2:25 PM 17.6 °F 12.3 °F 10.4 °F 73% 30.28 in 9.0 mi SSE 3.5 mph - N/A   Clear
2:45 PM 17.6 °F 12.3 °F 10.4 °F 73% 30.27 in 10.0 mi SSE 3.5 mph - N/A   Clear
3:05 PM 17.6 °F 10.7 °F 10.4 °F 73% 30.26 in 10.0 mi SE 4.6 mph - N/A   Clear
3:25 PM 17.6 °F 10.7 °F 10.4 °F 73% 30.25 in 10.0 mi SSE 4.6 mph - N/A   Clear
3:45 PM 17.6 °F 9.3 °F 10.4 °F 73% 30.24 in 10.0 mi SE 5.8 mph - N/A   Clear
4:05 PM 17.6 °F 12.3 °F 10.4 °F 73% 30.24 in 10.0 mi East 3.5 mph - N/A   Clear
4:25 PM 17.6 °F - 10.4 °F 73% 30.25 in 10.0 mi Calm Calm - N/A   Clear
4:45 PM 17.6 °F - 10.4 °F 73% 30.24 in 10.0 mi Calm Calm - N/A   Clear
5:05 PM 15.8 °F 10.2 °F 10.4 °F 79% 30.23 in 10.0 mi SSE 3.5 mph - N/A   Clear
5:25 PM 15.8 °F 10.2 °F 10.4 °F 79% 30.23 in 10.0 mi SSE 3.5 mph - N/A   Clear
5:45 PM 15.8 °F 7.2 °F 10.4 °F 79% 30.22 in 10.0 mi SE 5.8 mph - N/A   Clear
6:05 PM 14.0 °F 5.1 °F 8.6 °F 79% 30.23 in 8.0 mi ESE 5.8 mph - N/A   Clear
6:25 PM 14.0 °F 6.5 °F 8.6 °F 79% 30.23 in 9.0 mi SE 4.6 mph - N/A   Partly Cloudy
6:45 PM 14.0 °F 5.1 °F 8.6 °F 79% 30.23 in 10.0 mi SE 5.8 mph - N/A   Partly Cloudy
7:05 PM 12.2 °F 1.7 °F 8.6 °F 85% 30.23 in 10.0 mi SE 6.9 mph - N/A   Clear
7:25 PM 14.0 °F 3.9 °F 8.6 °F 79% 30.24 in 10.0 mi SSE 6.9 mph - N/A   Clear
7:45 PM 10.4 °F -1.5 °F 6.8 °F 85% 30.24 in 9.0 mi SSE 8.1 mph - N/A   Scattered Clouds
8:05 PM 12.2 °F -0.2 °F 8.6 °F 85% 30.23 in 10.0 mi SSE 9.2 mph - N/A   Partly Cloudy
8:25 PM 10.4 °F -2.4 °F 5.0 °F 79% 30.23 in 10.0 mi SSE 9.2 mph - N/A   Clear
8:45 PM 8.6 °F -4.7 °F 6.8 °F 92% 30.23 in 10.0 mi SSE 9.2 mph - N/A   Partly Cloudy
9:05 PM 8.6 °F -4.7 °F 5.0 °F 85% 30.22 in 9.0 mi South 9.2 mph - N/A   Partly Cloudy
9:25 PM 8.6 °F -6.3 °F 5.0 °F 85% 30.22 in 9.0 mi South 11.5 mph - N/A   Clear
9:45 PM 8.6 °F -6.3 °F 5.0 °F 85% 30.22 in 9.0 mi South 11.5 mph - N/A   Clear
10:05 PM 8.6 °F -3.7 °F 5.0 °F 85% 30.21 in 9.0 mi SSW 8.1 mph - N/A   Clear
10:25 PM 10.4 °F -0.4 °F 6.8 °F 85% 30.21 in 10.0 mi SSW 6.9 mph - N/A   Clear
10:45 PM 10.4 °F -0.4 °F 6.8 °F 85% 30.20 in 10.0 mi SW 6.9 mph - N/A   Clear
11:05 PM 12.2 °F 2.9 °F 8.6 °F 85% 30.20 in 10.0 mi SW 5.8 mph - N/A   Clear
11:25 PM 12.2 °F 4.3 °F 8.6 °F 85% 30.18 in 10.0 mi SW 4.6 mph - N/A   Clear
11:45 PM 12.2 °F 6.1 °F 8.6 °F 85% 30.18 in 9.0 mi SW 3.5 mph - N/A   Clear